TimeCDT,TemperatureF,Dew PointF,Humidity,Sea Level PressureIn,VisibilityMPH,Wind Direction,Wind SpeedMPH,Gust SpeedMPH,PrecipitationIn,Events,Conditions,WindDirDegrees,DateUTC
12:53 AM,82.0,62.1,51,29.84,10.0,Calm,Calm,-,N/A,,Clear,0,2013-08-31 05:53:00
1:53 AM,81.0,62.1,52,29.84,10.0,Calm,Calm,-,N/A,,Clear,0,2013-08-31 06:53:00
2:53 AM,78.1,63.0,60,29.84,10.0,Calm,Calm,-,N/A,,Clear,0,2013-08-31 07:53:00
3:53 AM,75.9,63.0,64,29.85,10.0,Calm,Calm,-,N/A,,Clear,0,2013-08-31 08:53:00
4:53 AM,78.1,63.0,60,29.85,10.0,Calm,Calm,-,N/A,,Clear,0,2013-08-31 09:53:00
5:53 AM,75.9,64.0,67,29.85,10.0,SE,3.5,-,N/A,,Clear,140,2013-08-31 10:53:00
6:53 AM,75.9,63.0,64,29.86,10.0,Calm,Calm,-,N/A,,Clear,0,2013-08-31 11:53:00
7:53 AM,78.1,64.0,62,29.87,10.0,SSE,4.6,-,N/A,,Clear,150,2013-08-31 12:53:00
8:53 AM,82.0,64.0,54,29.88,10.0,South,3.5,-,N/A,,Clear,190,2013-08-31 13:53:00
9:53 AM,90.0,62.1,39,29.88,10.0,SW,6.9,-,N/A,,Clear,220,2013-08-31 14:53:00
10:53 AM,95.0,61.0,32,29.87,10.0,SSW,6.9,-,N/A,,Clear,210,2013-08-31 15:53:00
11:53 AM,99.0,59.0,26,29.86,10.0,Variable,5.8,-,N/A,,Clear,0,2013-08-31 16:53:00
12:53 PM,100.9,57.9,24,29.84,10.0,Calm,Calm,-,N/A,,Clear,0,2013-08-31 17:53:00
1:53 PM,100.0,57.0,24,29.82,10.0,West,4.6,-,N/A,,Clear,270,2013-08-31 18:53:00
2:53 PM,104.0,57.0,21,29.80,10.0,ESE,10.4,-,N/A,,Mostly Cloudy,110,2013-08-31 19:53:00
3:53 PM,102.9,55.9,21,29.78,10.0,South,5.8,18.4,N/A,,Clear,190,2013-08-31 20:53:00
4:53 PM,102.9,57.0,22,29.77,10.0,SE,8.1,-,N/A,,Scattered Clouds,130,2013-08-31 21:53:00
5:53 PM,100.9,57.0,23,29.76,10.0,ESE,3.5,-,N/A,,Clear,120,2013-08-31 22:53:00
6:53 PM,100.0,55.9,23,29.76,10.0,SSE,8.1,-,N/A,,Clear,150,2013-08-31 23:53:00
7:53 PM,95.0,57.9,29,29.76,10.0,SSE,6.9,-,N/A,,Clear,150,2013-09-01 00:53:00
8:53 PM,90.0,59.0,35,29.78,10.0,SSE,4.6,-,N/A,,Clear,160,2013-09-01 01:53:00
9:53 PM,89.1,61.0,39,29.78,10.0,SSE,6.9,-,N/A,,Clear,150,2013-09-01 02:53:00
10:53 PM,86.0,62.1,44,29.78,10.0,SSE,4.6,-,N/A,,Clear,160,2013-09-01 03:53:00
11:53 PM,84.0,62.1,47,29.78,10.0,Calm,Calm,-,N/A,,Clear,0,2013-09-01 04:53:00